COSMOS 841

Satellite information

Favourite Embed

Satellite Type and Status

PAYLOADIN ORBIT

Key statistics

Satellite COSMOS 841 at a glance.

Uptime

17889

Days in orbit

Revolutions

≈ 14.4

Per day

Orbit

LEO

Low Earth Orbit

Inclination

74.0

Latest

Satellite identification and parameters

Extended collection of information and parameters for COSMOS 841.

Object identification

Identified? True

Debris? False

Object name: COSMOS 841

International designator: 1976-069A

Object number (NORAD): 9022

Object ID (CCSDS): 9022

Country: COMMONWEALTH OF INDEPENDENT STATES (CIS)

Current information (Y/N): Y

RCS size: LARGE

Orbital parameters

Period: 100.232 minutes

Inclination: 74.0413 deg

SMA: 7147.665 km

Apoapsis: 778.471 km

Periapsis: 760.588 km

RAAN: 215.9283 deg

Eccentricy: 0.001251

Argument of periapsis: 18.3561 deg

Mean anomaly: 341.8041 deg

Mean motion: 14.36668326 rev/day

Mean motion (dot): 0.00000112 rev/day2

B* drag term: 0.000046858 1/REarth

Two-line elements (TLE)

Creation date: July 6, 2025, 10:46 p.m.

Reference frame: TEME

Reference center: EARTH

Epoch: July 6, 2025, 2:29 p.m. UTC

TLE line 0: 0 COSMOS 841

TLE line 1: 1 9022U 76069A 25187.60356432 .00000112 00000-0 46858-4 0 9992

TLE line 2: 2 9022 74.0413 215.9283 0012510 18.3561 341.8041 14.36668326563052

Live tracking on map

Real-time ground track for satellite COSMOS 841.

In-orbit conjunctions

A list of the most updated potential collisions computed for object COSMOS 841.

Target Orbit TCA Probability of collision Miss distance Type
NOAA 16 DEB SSO 2025-02-22 04:36:34 0.0002516436 196.0 (m) DEBRIS
METEOR 2-5 DEB LEO 2024-11-23 12:29:10 0.0002222729 95.0 (m) DEBRIS
CZ-6A DEB LEO 2024-11-06 02:31:42 0.0001245998 622.0 (m) DEBRIS
FENGYUN 1C DEB SSO 2024-09-14 15:57:20 0.0003886361 100.0 (m) DEBRIS

Associated space launch

Military communications satellite

COSMOS 841 was lifted into orbit during the mission ‘Kosmos-3M | Strela-2M 13’, on board a Kosmos-3M space rocket.

The launch took place on July 15, 1976, 1:11 p.m. from 132/1 (132L).

For more information about the launch, click the button.

Launch to space Kosmos-3M | Strela-2M 13
Kosmos-3M | Strela-2M 13

Agency: N/A

Status: Launch Successful

Launch date: July 15, 1976, 1:11 p.m. UTC

Rocket: Kosmos-3M

Launch pad: 132/1 (132L)

Location: Plesetsk Cosmodrome, Russian Federation

...

Latest news about this satellite

There are no fresh news available about this satellite. Check back as we update our databases every day.


Newsletter sign-up

Weekly statistics, charts and insights to help you stay on top of the space industry.